Location: Unspecified
(47.4992°N, 121.7766°W)
Time: 03:25:30
(UTC-08:00)

Cosmos 2058 - Pass Details

Date: 31 January 2021
Orbit: 561 x 584 km, 82.5° (Epoch: 24 February)

Event Time Altitude Azimuth Distance (km) Brightness Sun altitude
Rises 18:12:26 0° 147° (SSE) 2,786 6.2 -11.1°
Reaches altitude 10° 18:15:13 10° 127° (SE) 1,889 5.2 -11.6°
Enters shadow 18:17:44 17° 90° (E) 1,477 4.4 -12.0°
